RH
72 65 71 76 86 100 100 78 97 93 85 69 99 99 79 91 100 100 100 100 100 97 98 94 94 78 89 100 85 65 61 76 84 90 87 77 51 47 50 42 40 35 35 40 48
70 58 51 57 88 82 79 86 89 92 100 94 82 89 86 84 84 96 100 100 100 100 100 100 89 94 94 94 91 92 85 80 67 81 66 57 62 67 79 73 58 57 59 70 76
80 59 35 28 37 52 57 46 62 91 99 96 91 98 96 77 80 86 71 74 86 100 100 100 100 99 100 99 88 98 92 91 99 100 100 98 83 75 60 61 71 78 81 78 79
62 51 46 36 20 29 31 31 31 49 75 98 99 90 78 66 51 73 78 78 72 66 67 95 100 100 100 100 100 100 100 100 100 100 100 97 100 97 92 94 79 66 55 48 41
77 57 48 39 26 23 24 25 27 30 32 58 82 88 81 65 45 41 52 57 51 52 60 54 47 48 61 70 92 100 100 100 100 100 100 98 100 98 85 63 97 92 92 76 65
61 59 57 44 37 32 22 26 23 22 33 34 63 73 74 43 54 39 40 45 54 51 42 43 36 34 39 46 59 65 91 70 66 76 67 76 99 100 100 100 98 86 84 99 100
49 42 38 30 24 32 41 36 34 30 28 31 32 30 38 35 47 33 31 30 36 45 48 43 37 30 30 27 33 44 57 59 40 72 54 78 70 64 98 100 99 88 80 76 86
56 41 40 34 32 27 29 40 49 50 38 41 32 20 20 36 44 34 22 23 31 39 33 40 39 30 30 24 34 34 49 66 40 90 59 100 89 59 73 100 100 99 96 100 100
51 56 44 43 36 30 28 61 81 66 59 47 42 24 22 36 26 30 26 23 25 31 35 32 25 25 27 26 32 32 48 44 67 62 82 83 99 87 74 62 59 62 56 71 87
60 64 69 46 49 44 32 28 50 68 75 85 63 42 31 33 24 26 24 25 24 31 37 36 41 30 27 30 34 40 35 60 63 68 92 91 87 86 91 76 68 67 65 62 58
64 81 73 71 67 48 49 38 39 39 45 79 100 96 82 36 44 41 45 45 43 34 40 39 42 52 62 49 40 39 43 49 61 71 100 100 100 100 100 100 100 78 52 52 40
88 74 73 68 81 47 44 50 47 52 55 100 88 100 100 100 99 63 52 52 91 73 67 53 60 55 75 53 54 60 69 100 99 83 67 76 81 95 79 83 89 54 40 50 44
89 90 83 97 86 61 61 44 54 61 52 56 96 97 99 100 97 100 100 100 100 100 100 100 92 75 70 72 49 51 56 82 100 87 76 61 80 67 57 56 60 36 39 58 36
86 100 90 100 90 91 69 85 52 51 62 54 59 80 90 82 94 98 100 100 96 92 79 66 88 63 66 84 76 68 43 44 52 57 73 67 64 67 44 40 42 64 71 90 78
98 92 100 94 88 100 87 82 80 52 55 52 65 72 64 63 56 67 78 74 72 61 51 44 50 53 58 56 48 54 64 68 67 60 61 100 83 61 74 46 47 40 52 67 62
100 100 92 100 95 100 100 100 90 100 48 46 50 78 100 88 84 78 72 71 64 58 66 67 62 57 60 56 69 63 62 76 93 92 71 100 100 100 98 71 57 56 37 34 37
93 100 100 100 100 87 100 100 99 89 78 43 56 63 72 91 87 85 83 93 94 92 86 80 95 73 66 64 66 89 85 67 59 69 80 60 79 94 72 58 43 31 35 32 28
96 100 100 100 100 100 100 100 100 100 99 90 66 63 61 67 81 84 100 91 100 87 91 92 96 100 100 99 99 97 98 85 81 72 73 61 58 64 52 42 26 32 29 26 24
100 100 100 100 100 100 100 100 100 90 100 100 100 77 94 90 83 75 100 84 74 71 83 67 71 69 82 76 75 77 84 86 73 73 72 70 66 56 42 32 33 25 29 29 25
100 100 100 100 100 100 100 100 100 100 100 100 100 100 89 97 95 87 76 92 100 91 89 90 87 64 60 61 60 60 61 64 66 66 62 60 55 57 38 38 31 27 29 26 20
100 100 100 100 100 100 100 100 100 100 100 100 100 100 100 100 100 100 93 82 90 100 100 96 86 75 74 59 57 64 65 61 66 55 54 53 58 45 38 36 30 26 25 20 16
100 100 100 100 100 100 100 100 100 100 100 100 100 100 100 100 100 100 88 87 100 100 86 92 95 84 65 72 63 58 52 52 63 52 57 52 50 42 38 30 37 30 25 15 16
100 100 100 100 100 100 100 100 100 100 100 98 100 100 100 100 97 90 80 77 82 77 72 65 62 67 71 60 57 55 51 58 59 58 60 47 52 35 29 30 28 21 19 21 15
88 91 87 95 100 100 100 100 100 91 96 80 73 94 97 72 70 59 66 68 75 72 62 53 52 63 60 56 54 50 51 54 58 64 52 52 42 44 30 22 17 18 16 10 8
33 37 58 88 92 97 95 95 76 60 47 47 47 50 51 48 50 60 58 58 58 56 51 51 63 58 56 69 67 49 51 58 60 56 47 44 42 33 24 21 24 16 11 10 10
13 16 20 21 22 25 27 31 34 39 42 46 50 46 47 48 46 46 50 45 48 64 64 59 52 66 76 71 76 74 65 66 64 58 57 49 39 23 24 19 13 15 14 9 6
11 13 15 18 22 26 36 42 43 42 47 51 48 45 44 39 37 34 38 44 48 45 46 65 91 88 83 91 95 87 87 80 71 62 51 33 29 28 18 15 15 11 7 6 5
Wind_Speed
59 56 59 58 56 54 55 52 52 51 47 47 45 45 46 45 44 40 40 38 36 35 32 28 27 29 27 24 28 31 35 41 41 42 44 38 43 40 40 43 40 44 42 40 39
58 56 55 54 58 58 57 57 54 53 54 52 50 48 47 50 46 42 41 39 38 37 35 30 31 32 32 31 29 29 31 37 35 43 42 43 43 44 45 48 47 46 43 43 45
58 60 55 49 54 51 53 53 53 55 55 54 55 53 51 51 49 49 44 42 40 36 36 36 32 34 35 34 38 40 36 36 42 43 44 46 44 42 42 46 50 52 51 49 50
56 59 58 55 53 53 50 53 55 54 57 57 57 55 51 49 48 52 51 46 43 44 43 40 38 38 35 35 38 41 39 42 44 44 46 47 50 49 48 45 45 49 49 48 47
57 60 58 59 56 55 54 55 58 60 59 61 58 56 53 50 48 52 51 49 47 45 46 47 45 46 47 46 42 42 47 46 47 47 49 51 52 51 50 46 50 50 53 54 53
69 65 63 58 60 61 59 57 55 59 62 59 59 57 53 51 50 52 51 50 50 48 47 48 47 45 45 44 44 45 49 51 51 52 53 51 53 53 54 55 55 55 55 55 57
68 66 65 67 63 64 66 65 61 56 64 65 58 56 53 51 53 54 53 53 54 54 51 49 48 47 47 46 48 49 49 52 50 55 53 55 56 53 52 57 59 60 59 57 56
64 63 59 62 65 68 68 69 64 62 65 69 64 60 58 57 57 57 55 55 55 54 55 55 54 53 54 52 54 57 57 58 54 57 54 57 59 54 56 58 60 61 63 64 61
69 67 60 56 65 70 69 70 68 63 66 69 66 61 59 62 59 60 60 58 57 60 59 59 57 58 60 59 61 57 61 61 59 59 60 62 63 63 55 59 62 67 72 70 68
73 73 71 60 59 61 68 68 73 67 70 68 67 64 66 63 61 65 67 65 64 65 63 66 65 66 61 63 68 65 61 66 65 62 65 70 71 71 70 66 70 73 75 81 74
81 75 77 75 64 58 62 67 68 65 68 70 68 69 71 67 65 67 70 68 69 71 68 66 67 68 70 73 70 70 74 72 72 70 73 73 73 77 75 76 80 81 86 86 80
89 83 77 75 77 63 56 63 71 67 67 68 71 70 67 68 69 73 73 75 72 73 71 72 71 66 75 71 73 75 73 71 72 76 78 81 81 87 82 81 81 86 71 70 70
89 90 84 84 79 76 69 59 64 70 71 73 75 77 74 76 77 73 74 75 74 75 73 76 75 74 78 76 74 78 77 78 77 80 83 82 87 90 87 85 82 77 86 86 70
92 93 88 92 86 86 80 78 68 69 76 76 74 78 79 80 78 78 81 80 81 82 81 82 77 81 78 81 79 85 77 82 84 83 84 88 91 98 82 78 77 82 82 91 95
99 97 97 92 92 94 86 86 78 77 75 75 74 76 84 85 83 82 84 86 86 85 88 88 80 81 81 81 82 84 81 82 84 84 86 95 89 90 94 84 83 83 89 95 96
100 102 99 102 95 97 98 95 91 90 83 72 74 79 80 82 81 84 84 85 88 87 85 83 82 82 84 84 82 79 83 77 80 86 82 83 87 95 104 99 96 98 92 92 94
98 106 105 103 100 99 97 99 99 95 89 80 79 78 82 83 86 85 85 84 87 86 86 83 81 85 83 84 82 86 92 92 88 91 93 90 90 99 105 105 98 94 101 99 98
106 107 111 104 103 105 101 106 104 95 98 97 87 86 86 84 86 87 88 88 89 91 92 87 88 88 89 92 93 91 96 98 101 100 98 102 100 107 108 106 99 105 106 104 104
114 110 105 107 108 112 110 112 106 99 104 97 99 96 96 92 89 90 93 96 94 96 98 98 98 91 98 101 102 100 102 103 105 107 106 104 111 112 112 103 109 106 110 113 109
115 113 113 112 111 110 112 110 107 105 105 103 105 106 103 99 99 97 96 97 102 103 101 105 109 101 102 106 105 106 106 107 109 110 109 109 114 117 116 113 114 110 111 109 104
117 119 115 119 116 116 114 108 112 107 108 111 111 112 109 106 104 103 106 102 105 106 108 111 111 110 113 109 107 105 108 109 110 111 112 111 117 116 115 114 116 111 107 98 90
122 123 121 121 123 119 114 114 118 115 116 118 116 116 113 115 108 112 116 111 113 113 115 114 117 118 115 111 108 107 108 109 108 111 112 113 112 118 114 113 112 107 99 87 82
132 127 127 128 123 127 120 124 123 125 128 126 126 121 121 125 127 121 115 108 114 112 113 113 113 113 112 109 105 107 107 107 110 110 109 110 112 113 111 109 101 92 84 81 77
129 128 129 128 130 128 129 133 131 129 126 123 122 125 123 120 112 109 105 107 107 108 109 110 109 110 110 107 106 108 107 107 107 107 109 109 107 111 104 95 84 81 76 72 68
112 113 115 122 122 125 126 127 120 116 112 110 108 106 106 105 101 101 100 102 104 107 106 104 102 102 104 103 106 106 104 102 104 103 102 101 100 95 88 79 77 75 71 68 62
91 92 94 95 96 92 92 91 91 91 90 89 90 90 88 92 92 91 92 94 94 95 94 95 96 96 98 98 96 96 96 98 98 96 94 93 88 79 76 71 67 64 65 62 56
75 75 74 72 72 73 75 80 79 81 78 78 79 76 77 80 79 80 82 83 84 85 87 86 83 83 84 82 84 85 86 86 87 85 82 78 76 74 70 64 60 57 56 52 46
Wind_Direction
272 262 267 267 268 265 266 265 259 259 260 263 265 267 267 266 267 268 271 273 275 281 283 277 276 283 284 277 271 272 267 265 270 277 277 273 268 269 272 271 270 270 273 274 273
266 265 262 266 269 265 264 264 263 259 261 260 263 264 264 264 270 265 265 263 267 268 271 273 280 284 283 284 284 277 273 269 274 274 283 279 276 276 274 274 275 274 275 272 273
262 264 262 265 270 267 265 266 267 263 261 263 265 263 265 262 262 263 265 268 267 263 263 263 265 263 272 274 282 282 281 278 273 278 279 282 280 279 277 274 274 275 274 274 272
259 257 259 263 263 262 258 268 270 267 265 262 264 266 265 264 262 266 267 269 269 269 268 263 259 263 267 270 273 272 272 275 275 276 277 280 282 282 281 279 280 274 275 275 275
257 260 257 261 260 256 261 265 272 270 267 265 263 265 265 264 264 264 267 268 266 267 269 271 273 274 273 269 264 265 268 269 271 272 275 277 277 278 282 283 278 279 274 273 275
266 264 265 261 258 256 256 261 264 266 271 268 264 265 263 269 268 265 266 268 266 267 268 270 271 270 272 272 271 269 270 271 273 276 280 278 276 281 283 281 282 281 279 277 277
268 266 266 267 259 255 257 260 261 264 262 269 267 267 268 268 268 266 267 270 273 270 271 270 270 270 269 270 274 278 280 280 275 278 279 279 278 279 280 281 282 282 280 278 275
267 266 258 257 253 258 258 260 256 259 259 265 265 266 266 269 269 273 266 264 268 269 270 272 274 268 271 270 276 276 280 284 275 280 277 280 280 278 281 280 283 285 286 282 279
260 263 260 259 255 257 257 254 254 257 259 260 263 259 262 266 268 271 269 267 263 264 265 267 268 266 267 266 268 271 276 277 280 278 280 275 276 276 274 277 282 286 288 285 282
258 258 259 266 260 256 252 254 253 254 256 259 260 259 263 262 259 266 265 266 264 264 265 265 265 266 268 270 269 269 267 276 277 280 278 279 277 272 272 273 275 281 284 286 279
261 256 262 263 265 261 254 254 254 255 256 260 261 260 259 257 260 263 265 264 266 263 261 266 266 269 268 267 270 272 273 267 273 274 277 275 274 275 275 273 274 278 283 284 281
257 259 258 263 261 262 263 255 253 253 252 254 255 255 258 260 263 264 262 264 267 265 262 261 262 271 266 267 268 268 270 272 271 272 274 276 278 277 278 278 276 284 281 280 276
257 258 256 258 263 264 265 264 256 253 250 253 252 251 252 256 257 260 259 261 264 265 264 265 267 268 267 264 264 274 269 269 269 272 272 272 274 276 280 277 275 283 273 284 288
255 256 259 258 259 264 260 267 267 261 253 250 252 253 253 258 257 258 260 262 265 266 268 269 268 270 268 266 267 272 270 269 270 269 272 276 274 278 278 273 273 279 283 291 285
252 256 256 257 260 261 264 263 268 267 265 253 253 256 256 258 258 257 261 261 264 265 266 267 267 267 267 268 269 271 270 270 272 273 272 284 284 273 275 282 285 288 289 285 285
253 251 255 254 258 259 263 264 267 268 273 266 258 257 258 257 259 259 260 262 263 265 268 268 266 267 269 272 274 269 271 275 275 275 278 274 274 274 277 282 281 284 288 286 286
252 250 251 254 253 257 261 264 267 268 273 272 269 264 261 260 257 260 262 266 268 267 267 269 273 272 271 271 273 270 275 280 281 281 280 282 279 276 279 283 286 289 288 287 289
251 250 249 251 255 254 256 260 265 269 269 272 273 270 266 263 264 264 265 267 268 269 268 267 265 268 267 272 276 275 277 280 282 282 284 286 284 283 284 287 291 290 289 289 289
251 249 248 251 253 255 253 256 262 266 268 268 273 272 274 272 267 266 269 268 268 269 270 271 271 269 269 272 274 274 276 279 280 282 285 287 287 286 287 292 291 292 291 292 291
249 249 249 249 252 254 254 258 263 263 269 267 269 270 272 271 270 271 269 266 267 269 271 272 274 273 274 274 276 277 277 279 281 284 286 286 287 287 289 290 292 292 292 292 290
248 248 248 248 252 253 255 259 262 263 268 266 265 267 270 271 268 268 269 267 268 269 270 272 273 274 275 276 277 277 279 280 282 284 286 287 287 289 290 291 293 294 294 292 289
247 247 250 251 252 255 257 258 261 262 264 266 263 265 267 268 266 264 269 266 268 270 269 270 272 276 276 277 279 279 280 281 282 284 285 287 287 289 290 293 294 296 294 291 288
245 245 247 250 252 254 257 258 258 261 262 262 262 263 264 264 266 268 268 267 268 269 271 271 272 274 276 277 276 278 281 281 283 285 286 286 287 289 292 293 293 292 290 289 288
243 245 245 247 249 253 256 259 259 262 263 265 264 263 266 266 266 266 266 266 267 268 270 272 273 273 275 276 275 277 280 281 283 285 286 286 288 290 293 294 293 291 289 288 286
242 246 248 250 253 254 256 258 259 259 258 259 261 262 263 264 263 264 266 266 266 267 267 268 269 270 272 273 274 276 278 280 283 284 285 288 290 291 292 292 293 292 291 289 287
238 241 244 245 246 249 251 251 252 252 255 255 254 255 260 260 260 261 261 262 263 265 265 266 268 270 272 274 277 277 279 281 284 286 289 290 290 292 293 293 291 290 289 287 285
234 235 237 238 239 241 241 242 245 248 249 251 254 254 255 258 260 261 262 263 266 267 267 268 270 272 275 278 278 280 281 283 285 288 289 290 293 294 293 294 291 289 287 284 280